{"data":{"norad_id":64889,"intl_designator":"2025-155P","name":"2025-155P","alt_names":[],"object_type":"PAYLOAD","status":"ACTIVE","operator":null,"country":"TBD","launch_date":"2025-07-25","launch_site_code":"VOSTO","launch_vehicle":null,"mission":null,"orbit_class":"UNKNOWN","rcs_meters":null,"size_class":null,"mass_kg":null,"dimensions":null,"purposes":[],"wikipedia_slug":null,"has_3d_model":false,"image_url":null,"decayed_at":null,"tle_current":{"epoch":"2026-05-25T04:38:58.696224Z","epoch_age_seconds":54261,"freshness":"FRESH","line1":"1 64889U 25155P   26145.19373491  .00004601  00000+0  18034-3 0  9997","line2":"2 64889  97.4576 113.0714 0005361 254.5881 105.4765 15.26267461 77204","mean_motion":15.26267461,"eccentricity":0.0005361,"inclination_deg":97.4576,"raan_deg":113.0714,"arg_perigee_deg":254.5881,"mean_anomaly_deg":105.4765,"bstar":0.00018034,"rev_number":7720,"period_min":94.347814966619,"perigee_km":483.3017359003,"apogee_km":490.66251662748,"semimajor_km":6865.1191262639,"source":"CELESTRAK","updated_at":"2026-05-25T13:38:04.873539Z"}}}